TimeEDT,TemperatureF,Dew PointF,Humidity,Sea Level PressureIn,VisibilityMPH,Wind Direction,Wind SpeedMPH,Gust SpeedMPH,PrecipitationIn,Events,Conditions,WindDirDegrees,DateUTC
12:15 AM,59.0,48.2,67,29.87,10.0,South,11.5,-,N/A,,Partly Cloudy,170,2013-03-18 04:15:00
12:35 AM,60.8,50.0,68,29.86,10.0,SSE,11.5,-,N/A,,Partly Cloudy,160,2013-03-18 04:35:00
12:55 AM,60.8,51.8,72,29.86,10.0,South,11.5,-,N/A,,Mostly Cloudy,170,2013-03-18 04:55:00
1:35 AM,60.8,51.8,72,29.86,10.0,South,9.2,-,N/A,,Overcast,180,2013-03-18 05:35:00
1:55 AM,60.8,51.8,72,29.86,10.0,South,6.9,-,N/A,,Overcast,190,2013-03-18 05:55:00
2:15 AM,60.8,51.8,72,29.86,10.0,South,6.9,-,N/A,,Overcast,180,2013-03-18 06:15:00
2:35 AM,60.8,53.6,77,29.85,10.0,South,11.5,-,N/A,,Overcast,170,2013-03-18 06:35:00
2:55 AM,60.8,53.6,77,29.85,10.0,South,6.9,-,N/A,,Overcast,180,2013-03-18 06:55:00
3:15 AM,60.8,53.6,77,29.85,10.0,South,9.2,-,N/A,,Overcast,170,2013-03-18 07:15:00
3:35 AM,60.8,53.6,77,29.85,10.0,South,12.7,-,N/A,,Overcast,170,2013-03-18 07:35:00
3:55 AM,60.8,53.6,77,29.85,10.0,South,10.4,-,N/A,,Overcast,180,2013-03-18 07:55:00
4:15 AM,60.8,53.6,77,29.84,10.0,South,9.2,-,N/A,,Overcast,180,2013-03-18 08:15:00
4:35 AM,62.6,53.6,72,29.83,10.0,South,13.8,-,N/A,,Overcast,170,2013-03-18 08:35:00
4:55 AM,60.8,53.6,77,29.83,10.0,South,13.8,-,N/A,,Overcast,180,2013-03-18 08:55:00
5:15 AM,60.8,53.6,77,29.83,10.0,South,10.4,-,N/A,,Mostly Cloudy,180,2013-03-18 09:15:00
5:35 AM,62.6,53.6,72,29.83,10.0,South,11.5,-,N/A,,Overcast,180,2013-03-18 09:35:00
5:55 AM,62.6,53.6,72,29.83,10.0,South,8.1,-,N/A,,Overcast,190,2013-03-18 09:55:00
6:15 AM,62.6,53.6,72,29.83,10.0,South,10.4,-,N/A,,Overcast,190,2013-03-18 10:15:00
6:35 AM,62.6,53.6,72,29.83,10.0,SSW,11.5,-,N/A,,Overcast,200,2013-03-18 10:35:00
6:55 AM,62.6,53.6,72,29.83,10.0,South,12.7,-,N/A,,Overcast,180,2013-03-18 10:55:00
7:15 AM,62.6,53.6,72,29.83,10.0,South,11.5,-,N/A,,Overcast,180,2013-03-18 11:15:00
7:35 AM,60.8,53.6,77,29.83,10.0,South,13.8,-,N/A,,Overcast,170,2013-03-18 11:35:00
7:55 AM,60.8,53.6,77,29.83,10.0,South,10.4,-,N/A,,Mostly Cloudy,170,2013-03-18 11:55:00
8:15 AM,60.8,53.6,77,29.82,10.0,South,10.4,-,N/A,,Overcast,180,2013-03-18 12:15:00
8:35 AM,60.8,53.6,77,29.83,10.0,South,13.8,-,N/A,,Overcast,180,2013-03-18 12:35:00
8:55 AM,59.0,55.4,88,29.82,6.0,South,19.6,-,N/A,,Overcast,170,2013-03-18 12:55:00
9:15 AM,59.0,55.4,88,29.83,10.0,South,11.5,-,N/A,,Overcast,170,2013-03-18 13:15:00
9:35 AM,59.0,55.4,88,29.82,9.0,SSE,16.1,-,N/A,,Overcast,160,2013-03-18 13:35:00
9:55 AM,60.8,55.4,82,29.82,10.0,South,12.7,-,N/A,,Overcast,170,2013-03-18 13:55:00
10:15 AM,60.8,55.4,82,29.82,10.0,South,12.7,-,N/A,,Overcast,180,2013-03-18 14:15:00
10:35 AM,60.8,57.2,88,29.82,9.0,South,13.8,-,N/A,,Overcast,180,2013-03-18 14:35:00
10:55 AM,60.8,57.2,88,29.81,10.0,South,12.7,-,N/A,,Overcast,180,2013-03-18 14:55:00
11:15 AM,60.8,57.2,88,29.82,10.0,South,10.4,-,N/A,,Overcast,190,2013-03-18 15:15:00
11:35 AM,62.6,57.2,82,29.81,10.0,South,13.8,-,N/A,,Overcast,190,2013-03-18 15:35:00
11:55 AM,62.6,57.2,82,29.80,10.0,South,11.5,-,N/A,,Overcast,190,2013-03-18 15:55:00
12:15 PM,62.6,57.2,82,29.80,7.0,South,8.1,-,N/A,,Overcast,180,2013-03-18 16:15:00
12:35 PM,60.8,59.0,94,29.80,7.0,South,10.4,-,N/A,,Overcast,180,2013-03-18 16:35:00
12:55 PM,60.8,59.0,94,29.81,2.0,SSW,5.8,-,N/A,,Overcast,200,2013-03-18 16:55:00
1:15 PM,60.8,59.0,94,29.80,7.0,South,8.1,-,N/A,,Overcast,190,2013-03-18 17:15:00
1:35 PM,60.8,59.0,94,29.79,10.0,South,6.9,-,N/A,,Overcast,190,2013-03-18 17:35:00
1:55 PM,60.8,59.0,94,29.78,7.0,South,8.1,-,N/A,,Overcast,190,2013-03-18 17:55:00
2:15 PM,60.8,59.0,94,29.78,10.0,SSW,8.1,-,N/A,,Overcast,200,2013-03-18 18:15:00
2:35 PM,60.8,59.0,94,29.79,3.0,WSW,6.9,-,N/A,,Overcast,250,2013-03-18 18:35:00
2:55 PM,59.0,57.2,94,29.79,4.0,WSW,5.8,-,N/A,,Overcast,250,2013-03-18 18:55:00
3:15 PM,57.2,55.4,94,29.80,5.0,SW,5.8,-,N/A,,Overcast,230,2013-03-18 19:15:00
3:35 PM,57.2,55.4,94,29.80,8.0,Calm,Calm,-,N/A,,Overcast,0,2013-03-18 19:35:00
3:55 PM,57.2,55.4,94,29.76,5.0,NE,8.1,-,N/A,,Overcast,40,2013-03-18 19:55:00
4:15 PM,57.2,57.2,100,29.81,7.0,WSW,3.5,-,N/A,,Mostly Cloudy,250,2013-03-18 20:15:00
4:35 PM,57.2,57.2,100,29.82,4.0,Variable,3.5,-,N/A,,Overcast,0,2013-03-18 20:35:00
4:55 PM,57.2,55.4,94,29.84,7.0,WSW,5.8,-,N/A,,Mostly Cloudy,240,2013-03-18 20:55:00
5:15 PM,57.2,55.4,94,29.81,2.5,South,10.4,-,N/A,,Overcast,170,2013-03-18 21:15:00
5:35 PM,57.2,55.4,94,29.76,10.0,Variable,3.5,-,N/A,,Mostly Cloudy,0,2013-03-18 21:35:00
5:55 PM,57.2,55.4,94,29.77,10.0,Calm,Calm,-,N/A,,Partly Cloudy,0,2013-03-18 21:55:00
6:15 PM,57.2,53.6,88,29.78,10.0,SSW,4.6,-,N/A,,Clear,200,2013-03-18 22:15:00
6:35 PM,57.2,53.6,88,29.77,10.0,South,5.8,-,N/A,,Clear,180,2013-03-18 22:35:00
6:55 PM,57.2,53.6,88,29.76,10.0,SE,3.5,-,N/A,,Clear,130,2013-03-18 22:55:00
7:15 PM,55.4,53.6,94,29.76,10.0,Calm,Calm,-,N/A,,Clear,0,2013-03-18 23:15:00
7:35 PM,55.4,53.6,94,29.77,10.0,Calm,Calm,-,N/A,,Clear,0,2013-03-18 23:35:00
7:55 PM,55.4,53.6,94,29.79,10.0,North,3.5,-,N/A,,Clear,350,2013-03-18 23:55:00
8:15 PM,55.4,53.6,94,29.80,10.0,NNW,4.6,-,N/A,,Partly Cloudy,340,2013-03-19 00:15:00
8:35 PM,53.6,53.6,100,29.81,10.0,Variable,5.8,-,N/A,,Mostly Cloudy,0,2013-03-19 00:35:00
8:55 PM,55.4,53.6,94,29.82,10.0,Calm,Calm,-,N/A,,Overcast,0,2013-03-19 00:55:00
9:15 PM,55.4,53.6,94,29.82,10.0,Calm,Calm,-,N/A,,Overcast,0,2013-03-19 01:15:00
9:35 PM,55.4,53.6,94,29.83,10.0,Calm,Calm,-,N/A,,Overcast,0,2013-03-19 01:35:00
9:55 PM,55.4,53.6,94,29.85,10.0,Calm,Calm,-,N/A,,Overcast,0,2013-03-19 01:55:00
10:15 PM,55.4,53.6,94,29.86,10.0,WNW,5.8,-,N/A,,Overcast,290,2013-03-19 02:15:00
10:35 PM,55.4,51.8,88,29.87,10.0,NW,9.2,-,N/A,,Overcast,310,2013-03-19 02:35:00
10:55 PM,53.6,50.0,88,29.89,10.0,NW,6.9,-,N/A,,Overcast,310,2013-03-19 02:55:00
11:15 PM,53.6,48.2,82,29.90,10.0,NNW,10.4,-,N/A,,Overcast,330,2013-03-19 03:15:00
11:55 PM,50.0,46.4,87,29.94,10.0,North,9.2,-,N/A,,Overcast,360,2013-03-19 03:55:00